Terminal Aerodrome Forecast
Issued by NWS

Home | Current Version | Previous Version | Graphics & Text | Print | Product List | Glossary On
Versions: 1 2 3 4 5 6 7 8 9 10 11 12 13 14 15 16 17 18 19 20 21 22 23
000
FTUS43 KMPX 222100 AAA
TAFRNH
TAF AMD
KRNH 222115Z 2221/2318 15012G20KT P6SM VCSH SCT060 BKN080
     FM230200 16011KT P6SM SCT040 BKN060
     FM230700 17008KT 5SM -SHRA BR BKN020 OVC040
     FM231000 18004KT 4SM BR OVC020
     FM231600 23005KT P6SM FEW020=

USA.gov is the U.S. government's official web portal to all federal, state and local government web resources and services.